Regional Weather Roundup
Issued by NWS

Home | Current Version | Previous Version | Graphics & Text | Print | Product List | Glossary On
Versions: 1 2 3 4 5 6 7 8 9 10 11 12 13 14 15 16 17 18 19 20 21 22 23 24 25 26 27 28 29 30 31 32 33 34 35 36 37 38 39 40 41 42 43 44 45 46 47 48 49 50
803
ASUS44 KJAN 201903
RWRMS

MISSISSIPPI HOURLY WEATHER ROUNDUP
NATIONAL WEATHER SERVICE JACKSON MS
200 PM CDT SAT SEP 20 2014

NOTE: "FAIR: INDICATES FEW OR NO CLOUDS BELOW 12,000 FEET WITH NO
SIGNIFICANT WEATHER AND/OR OBSTRUCTIONS TO VISIBILITY.

MSZ001>002-007>008-010>013-018>021-025>028-034>036-202000-
NORTHWEST MISSISSIPPI

CITY           SKY/WX    TMP DP  RH WIND       PRES   REMARKS
CLARKSDALE     FAIR      90  66  45 CALM      30.02F HX  92
CLEVELAND      FAIR      90  65  43 CALM      30.00F HX  92
GREENWOOD      MOSUNNY   87  67  51 E5        30.01F HX  90
GREENVILLE     PTSUNNY   90  61  37 CALM      30.00F HX  90
GRENADA        FAIR      86  68  54 CALM      30.03F
OXFORD         FAIR      82  66  57 E3        30.06F
TUNICA         PTCLDY    88  66  48 SE9       30.03F HX  90
$$

MSZ003>006-009-014>017-022>024-029>033-037>039-202000-
NORTHEAST MISSISSIPPI

CITY           SKY/WX    TMP DP  RH WIND       PRES   REMARKS
COLUMBUS AFB   MOSUNNY   84  65  52 VRB1      30.04F
CORINTH        MOCLDY    84  66  54 VRB5      30.04F
GOLDN TRIANGLE PTSUNNY   84  64  51 E5        30.05F
STARKVILLE     FAIR      86  64  48 CALM      30.04F
TUPELO         MOSUNNY   86  66  51 VRB6      30.04F
$$

MSZ040-058-202000-
CENTRAL MISSISSIPPI

CITY           SKY/WX    TMP DP  RH WIND       PRES   REMARKS
JACKSON INTL   MOSUNNY   88  67  49 VRB3      30.01F HX  91
JACKSON HAWKNS PTSUNNY   89  68  49 NE7       30.02F HX  93
MERIDIAN KEY   MOSUNNY   85  64  49 NE9       30.02F
MERIDIAN NAS   SUNNY     87  64  46 E5        30.02F
RAYMOND        FAIR      88  82  84 SE7       30.02F HX 108
VICKSBURG      SUNNY     89  67  47 E8        30.00F HX  92
$$

MSZ059>079-202000-
SOUTH MISSISSIPPI

CITY           SKY/WX    TMP DP  RH WIND       PRES   REMARKS
BROOKHAVEN     FAIR      88  66  48 E6        30.02F HX  90
COLUMBIA       FAIR      88  68  51 E8G14     29.98F HX  91
HATTIESBURG    MOSUNNY   87  68  52 E10       30.00F HX  90
MCCOMB         SUNNY     86  65  49 VRB7      30.00F
NATCHEZ        PTSUNNY   88  70  55 E10       30.00F HX  92
PINE BELT      MOSUNNY  N/A N/A N/A E10       30.01F
$$

MSZ080>082-202000-
COASTAL MISSISSIPPI

CITY           SKY/WX    TMP DP  RH WIND       PRES   REMARKS
BAY ST LOUIS   PTSUNNY   88  63  42 E7        29.97F
BILOXI         SUNNY     89  67  48 E8        29.97F HX  92
PASCAGOULA     MOSUNNY   85  68  56 NE10      29.97F
GULFPORT       MOSUNNY   87  67  51 E9        29.96F HX  90
$$



USA.gov is the U.S. government's official web portal to all federal, state and local government web resources and services.